DELTA 1 DEB, 26828

Orbit data source: Space-Track

DELTA 1 DEB, 26828 is space debris in SSO originally from a launch on Thu, 12 Jun 1975 UTC launched from the Air Force Western Test Range (AFWTR). Debris objects in space refer to the collection of defunct objects orbiting the Earth. Examples of debris include non-operational satellites, rocket bodies, and fragments generated from explosions, collisions, or faulty payload assembly.

Loading next visibility...
Identifier
26828, 1975-052KG
Orbit
SSO
Country
Flag of USUS
Related business
Manufacturer
Unknown
Mission
Spacecraft
Bus & Motor
Unknown
Mass
Unknown
Launch date (UTC)
1975-06-12 (51 years ago)
Launch vehicle
Unknown
Launch site
Air Force Western Test Range (AFWTR)
Object type
Payload
Rocket body
Debris
Shape & HBR
Unknown shape, 0.1 m
Radar Cross Section
Medium (>0.1 m² and <1 m²)

Expand to show TLE details & history
Last TLE update: 3 days ago

TLE from 3 days ago
0 DELTA 1 DEB
1 26828U 75052KG  26170.53716796  .00048345  00000-0  65151-2 0  9999
2 26828  99.5412 198.4400 0008814 290.4441 224.5994 14.78922499683208
Epoch: 2026-06-19T12:53Z
TLE epoch observation values (Epoch: 2026-06-19T12:53:31.311Z)
Latitude
24.68708°
Longitude
-78.29796°
Altitude
640.153 km
Speed
7.538 km/s
True Right ascension
01h 31m 23s
True Declination
24° 33' 17"
Sunlit
Object was in daylight at epoch
Visualization orbit readout
Latitude
Unknown
Longitude
Unknown
Altitude
Unknown
Speed
Unknown
Apparent Right ascension
Unknown
Apparent Declination
Unknown
Sunlit
N/A
Visualization observer readout
Local Sidereal Time
23:27:19
Azimuth
Unknown
Elevation
Unknown
Doppler factor
Unknown
Orbital elements
Apogee altitude
636.027 km
Perigee altitude
623.674 km
Semi-major axis
7,007.987 km
Eccentricity
0.00088
Inclination
99.5412°
RAAN
198.44°
Arg. of periapsis
290.4441°
True anomaly
224.52854°
Mean anomaly
224.5994°
Eccentric anomaly
224.56396°
Mean motion
3.69959 °/min
Orbital period
97.31 mins
BSTAR
0.0065151
Loading maneuver chart data...
Computing Atmospheric mass density...
Loading historical data...
Loading historical data...
Loading historical data...
Loading historical data...
Loading historical data...
Loading historical data...
Loading historical data...

Documentation

Showing up to 5 results
|